This is the latest recevied weather packets stored in our database for station/object N4AR. If no packets are shown the sender has not sent any weather packets the latest 1 day(s).
| Time | Temp. | Humidity | Pressure | Rain* | Wind** | Luminosity | Snow |
|---|---|---|---|---|---|---|---|
| 1777997602 | 28.89° C | 34% | 1015.8 hPa | 0 mm | 1.34 m/s, 293° | 843 W/m² | - |
| 1777997299 | 28.33° C | 35% | 1015.8 hPa | 0 mm | 1.34 m/s, 39° | 845 W/m² | - |
| 1777996997 | 27.78° C | 35% | 1015.9 hPa | 0 mm | 0.89 m/s, 102° | 840 W/m² | - |
| 1777996694 | 27.78° C | 37% | 1015.8 hPa | 0 mm | 0.45 m/s, 110° | 827 W/m² | - |
| 1777996389 | 28.33° C | 36% | 1016.1 hPa | 0 mm | 0 m/s | 824 W/m² | - |
| 1777996086 | 27.78° C | 36% | 1016.1 hPa | 0 mm | 0.45 m/s, 83° | 814 W/m² | - |
| 1777995782 | 27.78° C | 36% | 1016.2 hPa | 0 mm | 1.34 m/s, 157° | 803 W/m² | - |
| 1777995479 | 27.22° C | 36% | 1015.8 hPa | 0 mm | 0.89 m/s, 73° | 793 W/m² | - |
| 1777995176 | 26.67° C | 37% | 1016 hPa | 0 mm | 0.89 m/s, 44° | 782 W/m² | - |
| 1777994873 | 26.67° C | 37% | 1016.1 hPa | 0 mm | 0.89 m/s, 226° | 774 W/m² | - |
| 1777994569 | 26.67° C | 38% | 1016 hPa | 0 mm | 0.89 m/s, 71° | 761 W/m² | - |
| 1777994263 | 26.67° C | 38% | 1015.9 hPa | 0 mm | 0.89 m/s, 63° | 748 W/m² | - |
| 1777993961 | 26.11° C | 38% | 1016 hPa | 0 mm | 0.45 m/s, 75° | 443 W/m² | - |
| 1777993659 | 26.11° C | 39% | 1015.8 hPa | 0 mm | 0.89 m/s, 35° | 727 W/m² | - |
| 1777993356 | 25.56° C | 41% | 1016 hPa | 0 mm | 1.34 m/s, 44° | 712 W/m² | - |
| 1777993055 | 25.56° C | 41% | 1016 hPa | 0 mm | 0.89 m/s, 171° | 702 W/m² | - |
| 1777992754 | 25.56° C | 40% | 1015.9 hPa | 0 mm | 0.89 m/s, 80° | 691 W/m² | - |
| 1777992451 | 25° C | 41% | 1016 hPa | 0 mm | 1.34 m/s, 339° | 677 W/m² | - |
| 1777992150 | 25° C | 43% | 1016 hPa | 0 mm | 1.34 m/s, 68° | 504 W/m² | - |
| 1777991846 | 25° C | 43% | 1015.9 hPa | 0 mm | 0.45 m/s, 107° | 649 W/m² | - |
| 1777991543 | 24.44° C | 44% | 1016.1 hPa | 0 mm | 0.89 m/s, 82° | 635 W/m² | - |
| 1777991240 | 24.44° C | 45% | 1016.2 hPa | 0 mm | 0 m/s | 619 W/m² | - |
| 1777990938 | 23.89° C | 44% | 1016.3 hPa | 0 mm | 1.34 m/s, 183° | 603 W/m² | - |
| 1777990635 | 24.44° C | 46% | 1016.2 hPa | 0 mm | 0.45 m/s, 92° | 586 W/m² | - |
| 1777990332 | 23.89° C | 46% | 1016.1 hPa | 0 mm | 0.89 m/s, 91° | 570 W/m² | - |
* Rain latest hour (hover to see other rain measurements)
** Current wind speed in m/s (hover to see current wind gust speed)